Flag for India Weather past 2 weeks in Navi Mumbai, Maharashtra, India

84 °F

Passing clouds.

Feels Like: 94 °F
Forecast: 81 / 93 °F
Wind: 5 mph from Southeast

Location: Mumbai / Santacruz

Current Time: Oct 11, 2015 at 1:53:58 AM

Latest Report: Oct 11, 2015 at 12:40 AM

Visibility: 2 mi

Pressure: 29.80 "Hg

Humidity: 79%

Dew point: 77 °F

Location of Navi MumbaiLocation

Historic Weather in Navi Mumbai — Graph


Navi Mumbai temperature yesterday

Maximum temperature yesterday: 90 °F (at 11:40 AM)
Minimum temperature yesterday: 82 °F (at 4:40 AM)
Average temperature yesterday: 86 °F

Past Weeks' High & Low Weather Summary

High99 °F (Sep 30, 2:40 PM)94% (Oct 3, 1:40 AM)29.95 "Hg (Oct 3, 1:40 AM)
Low77 °F (Sep 26, 6:40 AM)37% (Oct 1, 12:40 PM)29.71 "Hg (Sep 28, 3:40 PM)
Average86 °F73%29.80 "Hg
* Reported Sep 25 11:40 PM — Oct 10 11:40 PM, Navi Mumbai, Weather by CustomWeather, © 2015

Note: Actual official high and low records may vary slightly from our data, if they occured in-between our weather recording intervals... More about our weather records


Navi Mumbai weather history for previous 24 hours

Time TempWeatherWind HumidityBarometerVisibility
11:40 PM
Sat, Oct 10
84 °FPassing clouds.3 mph84%29.83 "Hg2 mi
10:40 PM86 °FPassing clouds.5 mph79%29.83 "Hg2 mi
9:40 PM86 °FPassing clouds.9 mph75%29.83 "Hg2 mi
8:40 PM86 °FPassing clouds.7 mph75%29.83 "Hg2 mi
7:40 PM86 °FPassing clouds.6 mph75%29.80 "Hg2 mi
5:40 PM88 °FScattered clouds.12 mph70%29.77 "Hg4 mi
4:40 PM88 °FScattered clouds.10 mph70%29.74 "Hg3 mi
2:40 PM90 °FScattered clouds.12 mph67%29.74 "Hg2 mi
1:40 PM90 °FScattered clouds.14 mph67%29.77 "Hg2 mi
12:40 PM90 °FScattered clouds.8 mph63%29.80 "Hg2 mi
11:40 AM90 °FScattered clouds.7 mph67%29.83 "Hg2 mi
10:40 AM88 °FPassing clouds.7 mph70%29.86 "Hg2 mi
9:40 AM86 °FScattered clouds.8 mph75%29.86 "Hg2 mi
8:40 AM84 °FScattered clouds.5 mph79%29.86 "Hg2 mi
7:40 AM84 °FScattered clouds.5 mph79%29.83 "Hg2 mi
6:40 AM84 °FPassing clouds.5 mph84%29.80 "Hg2 mi
5:40 AM82 °FFog.No wind84%29.77 "Hg2 mi
4:40 AM82 °FFog.5 mph89%29.77 "Hg2 mi
3:40 AM84 °FFog.No wind84%29.74 "Hg2 mi
2:40 AM84 °FPassing clouds.5 mph84%29.74 "Hg2 mi
1:40 AM84 °FPassing clouds.No wind84%29.77 "Hg2 mi
Weather by CustomWeather, © 2015

See weather overviewHow to use our weather pages